EW7069 Weather Reports


Display with metric or nautical units.
time (UTC)temp
F
wind
direction
speed
MPH
gust
MPH
rain 1hr
in
rain 24hr
in
rain mn
in
humidity
%
barometer
mb
20260903120002 85 0 0.0 0.0 0.00 0.00 0.00 47 1003.9
20260903115000 85 0 0.0 0.0 0.00 0.00 0.00 47 1003.3
20260903114001 85 0 0.0 0.0 0.00 0.00 0.00 47 1003.7
20260903113001 85 0 0.0 0.0 0.00 0.00 0.00 47 1003.4
20260903112000 85 0 0.0 0.0 0.00 0.00 0.00 47 1003.5
20260903111001 85 0 0.0 0.0 0.00 0.00 0.00 47 1003.4
20260903110001 85 0 0.0 0.0 0.00 0.00 0.00 47 1002.8
20260903105000 85 0 0.0 0.0 0.00 0.00 0.00 47 1002.0
20260903104001 85 0 0.0 0.0 0.00 0.00 0.00 47 1001.1
20260903102001 85 0 0.0 0.0 0.00 0.00 0.00 47 1001.0
20260903101001 85 0 0.0 0.0 0.00 0.00 0.00 47 1000.3
20260903100001 85 0 0.0 0.0 0.00 0.00 0.00 47 1000.9
20260903094001 85 0 0.0 0.0 0.00 0.00 0.00 47 1000.7
20260903093001 85 0 0.0 0.0 0.00 0.00 0.00 47 1000.1
20260903092001 85 0 0.0 0.0 0.00 0.00 0.00 47 1000.4
20260903091001 85 0 0.0 0.0 0.00 0.00 0.00 47 1000.2
20260903090001 85 0 0.0 0.0 0.00 0.00 0.00 47 1000.2
20260903085001 85 0 0.0 0.0 0.00 0.00 0.00 47 1000.1
20260903084001 85 0 0.0 0.0 0.00 0.00 0.00 47 1000.1
20260903083001 85 0 0.0 0.0 0.00 0.00 0.00 47 1000.2
20260903082001 85 0 0.0 0.0 0.00 0.00 0.00 47 999.9
20260903081001 85 0 0.0 0.0 0.00 0.00 0.00 47 1000.0
20260903080001 85 0 0.0 0.0 0.00 0.00 0.00 47 999.6
20260903075001 85 0 0.0 0.0 0.00 0.00 0.00 47 1000.0
20260903074001 85 0 0.0 0.0 0.00 0.00 0.00 47 999.4
20260903073001 85 0 0.0 0.0 0.00 0.00 0.00 47 999.9
20260903072001 85 0 0.0 0.0 0.00 0.00 0.00 47 999.0
20260903071001 85 0 0.0 0.0 0.00 0.00 0.00 47 999.6
20260903070002 85 0 0.0 0.0 0.00 0.00 0.00 47 999.0
20260903065001 85 0 0.0 0.0 0.00 0.00 0.00 47 999.2
20260903064001 85 0 0.0 0.0 0.00 0.00 0.00 47 998.9
20260903063002 85 0 0.0 0.0 0.00 0.00 0.00 47 998.7
20260903062001 85 0 0.0 0.0 0.00 0.00 0.00 47 998.8
20260903061001 85 0 0.0 0.0 0.00 0.00 0.00 47 998.7
20260903060002 85 0 0.0 0.0 0.00 0.00 0.00 47 998.7
20260903055001 85 0 0.0 0.0 0.00 0.00 0.00 47 998.4
20260903054001 85 0 0.0 0.0 0.00 0.00 0.00 47 998.5
20260903053001 85 0 0.0 0.0 0.00 0.00 0.00 47 998.2
20260903052002 85 0 0.0 0.0 0.00 0.00 0.00 47 998.3
20260903051001 85 0 0.0 0.0 0.00 0.00 0.00 47 998.4
20260903045001 85 0 0.0 0.0 0.00 0.00 0.00 47 998.3
20260903044001 85 0 0.0 0.0 0.00 0.00 0.00 47 997.7
20260903043001 85 0 0.0 0.0 0.00 0.00 0.00 47 998.3
20260903042001 85 0 0.0 0.0 0.00 0.00 0.00 47 997.1
20260903041002 85 0 0.0 0.0 0.00 0.00 0.00 47 996.6
20260903040001 85 0 0.0 0.0 0.00 0.00 0.00 47 996.9
20260903035002 85 0 0.0 0.0 0.00 0.00 0.00 47 997.0
20260903034001 85 0 0.0 0.0 0.00 0.00 0.00 47 997.2
20260903033001 85 0 0.0 0.0 0.00 0.00 0.00 47 997.3
20260903032001 85 0 0.0 0.0 0.00 0.00 0.00 47 997.5
20260903030001 85 0 0.0 0.0 0.00 0.00 0.00 47 997.8
20260903025002 85 0 0.0 0.0 0.00 0.00 0.00 47 998.1
20260903024001 85 0 0.0 0.0 0.00 0.00 0.00 47 998.4
20260903023001 85 0 0.0 0.0 0.00 0.00 0.00 47 998.5
20260903022002 85 0 0.0 0.0 0.00 0.00 0.00 47 998.8
20260903021001 85 0 0.0 0.0 0.00 0.00 0.00 47 999.2
20260903020002 85 0 0.0 0.0 0.00 0.00 0.00 47 999.6
20260903015001 85 0 0.0 0.0 0.00 0.00 0.00 47 999.9
20260903014002 85 0 0.0 0.0 0.00 0.00 0.00 47 1000.0
20260903013002 85 0 0.0 0.0 0.00 0.00 0.00 47 1000.3
20260903012001 85 0 0.0 0.0 0.00 0.00 0.00 47 1000.6
20260903011002 85 0 0.0 0.0 0.00 0.00 0.00 47 1000.9
20260903010001 85 0 0.0 0.0 0.00 0.00 0.00 47 1001.2
20260903005001 85 0 0.0 0.0 0.00 0.00 0.00 47 1001.5
20260903004002 85 0 0.0 0.0 0.00 0.00 0.00 47 1001.8
20260903003001 85 0 0.0 0.0 0.00 0.00 0.00 47 1002.1
20260903002002 85 0 0.0 0.0 0.00 0.00 0.00 47 1002.6
20260903001001 85 0 0.0 0.0 0.00 0.00 0.00 47 1003.1
20260902235001 85 135 1.0 2.0 0.00 0.00 0.00 47 1004.1
20260902234001 86 135 2.0 2.0 0.00 0.00 0.00 45 1004.7
20260902231001 89 135 3.0 4.0 0.00 0.00 0.00 41 1006.8
20260902230002 91 135 3.0 4.0 0.00 0.00 0.00 39 1007.4
20260902225001 93 135 3.0 6.0 0.00 0.00 0.00 38 1007.6
20260902224001 93 135 5.0 8.0 0.00 0.00 0.00 36 1007.7
20260902223002 94 135 5.0 8.0 0.00 0.00 0.00 35 1007.7
20260902222001 95 135 6.0 10.0 0.00 0.00 0.00 33 1007.8
20260902220001 94 135 8.0 14.0 0.00 0.00 0.00 34 1007.3
20260902215002 95 135 7.0 9.0 0.00 0.00 0.00 33 1007.3
20260902214002 95 135 6.0 7.0 0.00 0.00 0.00 34 1007.2
20260902213001 96 135 6.0 10.0 0.00 0.00 0.00 33 1007.2
20260902211001 96 135 6.0 10.0 0.00 0.00 0.00 34 1007.4
20260902210001 95 135 6.0 11.0 0.00 0.00 0.00 35 1007.4
20260902205002 97 135 7.0 9.0 0.00 0.00 0.00 33 1007.5
20260902204001 97 135 6.0 11.0 0.00 0.00 0.00 34 1007.2
20260902203001 96 135 6.0 11.0 0.00 0.00 0.00 34 1007.2
20260902202002 96 135 6.0 11.0 0.00 0.00 0.00 34 1007.3
20260902201002 96 265 7.0 13.0 0.00 0.00 0.00 33 1007.5
20260902200001 96 314 6.0 8.0 0.00 0.00 0.00 34 1007.5
20260902195002 95 314 5.0 7.0 0.00 0.00 0.00 35 1007.6
20260902194001 95 314 5.0 8.0 0.00 0.00 0.00 36 1008.2
20260902193002 94 314 6.0 9.0 0.00 0.00 0.00 36 999.9
20260902192003 94 314 7.0 11.0 0.00 0.00 0.00 35 999.8
20260902191001 95 314 6.0 11.0 0.00 0.00 0.00 37 999.8
20260902190002 95 314 5.0 9.0 0.00 0.00 0.00 37 999.8
20260902185002 94 314 5.0 8.0 0.00 0.00 0.00 39 1009.0
20260902184002 94 336 5.0 8.0 0.00 0.00 0.00 40 1008.7
20260902183001 93 235 5.0 8.0 0.00 0.00 0.00 40 1009.0
20260902182002 91 277 4.0 7.0 0.00 0.00 0.00 42 1008.6
20260902181002 91 254 4.0 6.0 0.00 0.00 0.00 39 999.9
20260902180001 91 252 5.0 8.0 0.00 0.00 0.00 39 1008.8
20260902174002 80 0 0.0 0.0 0.00 0.00 0.00 59 1008.9
20260902173001 80 0 0.0 0.0 0.00 0.00 0.00 59 1009.3
20260902172002 80 0 0.0 0.0 0.00 0.00 0.00 59 1009.0
20260902171002 80 0 0.0 0.0 0.00 0.00 0.00 59 1009.2
20260902170002 80 0 0.0 0.0 0.00 0.00 0.00 59 1009.0
20260902165002 80 0 0.0 0.0 0.00 0.00 0.00 59 1009.0
20260902164002 80 0 0.0 0.0 0.00 0.00 0.00 59 1009.2
20260902163002 80 0 0.0 0.0 0.00 0.00 0.00 59 1009.1
20260902161002 80 0 0.0 0.0 0.00 0.00 0.00 59 1009.0
20260902160002 80 0 0.0 0.0 0.00 0.00 0.00 59 1009.2
20260902155002 80 0 0.0 0.0 0.00 0.00 0.00 59 1008.9
20260902154002 80 0 0.0 0.0 0.00 0.00 0.00 59 1008.7
20260902153002 80 0 0.0 0.0 0.00 0.00 0.00 59 1009.0
20260902152002 80 0 0.0 0.0 0.00 0.00 0.00 59 1008.5
20260902151003 80 0 0.0 0.0 0.00 0.00 0.00 59 1009.0
20260902150002 80 0 0.0 0.0 0.00 0.00 0.00 59 1008.7
20260902145002 80 0 0.0 0.0 0.00 0.00 0.00 59 1009.1
20260902144002 80 0 0.0 0.0 0.00 0.00 0.00 59 1008.8
20260902143002 80 0 0.0 0.0 0.00 0.00 0.00 59 1008.5
20260902142002 80 0 0.0 0.0 0.00 0.00 0.00 59 1009.0
20260902141002 80 0 0.0 0.0 0.00 0.00 0.00 59 1008.7
20260902140002 80 0 0.0 0.0 0.00 0.00 0.00 59 1008.5
20260902135002 80 0 0.0 0.0 0.00 0.00 0.00 59 1008.1
20260902134002 80 0 0.0 0.0 0.00 0.00 0.00 59 1007.8
20260902133002 80 0 0.0 0.0 0.00 0.00 0.00 59 1007.8
20260902132002 80 0 0.0 0.0 0.00 0.00 0.00 59 1007.6
20260902131002 80 0 0.0 0.0 0.00 0.00 0.00 59 1007.4
20260902130002 80 0 0.0 0.0 0.00 0.00 0.00 59 1007.4
20260902124002 80 0 0.0 0.0 0.00 0.00 0.00 59 1006.5
20260902122002 80 0 0.0 0.0 0.00 0.00 0.00 59 1006.1